PA5MB-15 Weather Reports


time (UTC)temp
C
wind
direction
speed
KPH
gust
KPH
rain 1hr
cm
rain 24hr
cm
rain mn
cm
humidity
%
barometer
mb
20260503055032 14 168 0.0 0.0 0.00 0.97 0.20 99 1011.9
20260503054532 14 168 0.0 0.0 0.00 0.97 0.20 99 1011.9
20260503054028 13 164 0.0 0.0 0.00 0.97 0.20 99 1011.9
20260503053540 13 168 0.0 0.0 0.00 0.97 0.20 99 1011.9
20260503053033 14 165 0.0 0.0 0.00 0.97 0.20 99 1011.9
20260503052532 14 168 0.0 0.0 0.00 0.97 0.20 99 1011.9
20260503052028 13 168 0.0 0.0 0.00 0.97 0.20 99 1011.9
20260503051534 13 168 0.0 0.0 0.00 0.97 0.20 99 1011.9
20260503051047 13 168 0.0 0.0 0.00 0.97 0.20 99 1012.0
20260503050544 13 168 0.0 0.0 0.00 0.97 0.20 99 1012.0
20260503050025 13 168 0.0 0.0 0.00 0.97 0.20 99 1012.1
20260503045534 13 168 0.0 0.0 0.00 0.97 0.20 99 1012.1
20260503045032 13 168 0.0 0.0 0.00 0.97 0.20 99 1012.1
20260503044532 13 168 0.0 0.0 0.00 0.97 0.20 99 1012.1
20260503044031 13 168 0.0 3.2 0.00 0.97 0.20 99 1012.1
20260503043532 13 164 0.0 0.0 0.00 0.97 0.20 99 1012.1
20260503043044 13 164 0.0 0.0 0.00 0.97 0.20 99 1012.1
20260503042531 13 166 0.0 3.2 0.00 0.97 0.20 99 1012.1
20260503042031 13 168 0.0 0.0 0.00 0.97 0.20 99 1012.1
20260503041534 13 168 0.0 0.0 0.00 0.97 0.20 99 1012.1
20260503041032 13 168 0.0 0.0 0.00 0.97 0.20 99 1012.0
20260503040544 13 165 0.0 0.0 0.00 0.97 0.20 99 1011.9
20260503040032 13 165 0.0 0.0 0.00 0.97 0.20 99 1012.0
20260503035532 13 165 0.0 0.0 0.00 0.97 0.20 99 1012.0
20260503035032 13 165 0.0 0.0 0.00 0.97 0.20 99 1012.1
20260503034521 13 165 0.0 0.0 0.00 0.97 0.20 99 1012.1
20260503034028 13 165 0.0 0.0 0.00 0.97 0.20 99 1012.2
20260503033532 13 165 0.0 0.0 0.00 0.97 0.20 99 1012.2
20260503033032 14 165 0.0 0.0 0.00 0.97 0.20 99 1012.2
20260503032532 14 165 0.0 0.0 0.00 0.97 0.20 99 1012.3
20260503032044 14 165 0.0 0.0 0.00 0.97 0.20 99 1012.3
20260503031535 14 168 0.0 0.0 0.00 0.97 0.20 99 1012.3
20260503031031 14 168 0.0 0.0 0.00 0.97 0.20 98 1012.3
20260503030522 14 168 0.0 0.0 0.00 0.97 0.20 98 1012.3
20260503030032 14 168 0.0 0.0 0.00 0.97 0.20 98 1012.5
20260503025532 14 168 0.0 0.0 0.00 0.97 0.20 98 1012.6
20260503025032 14 168 0.0 0.0 0.00 0.97 0.20 98 1012.7
20260503024532 14 168 0.0 0.0 0.00 0.97 0.20 98 1012.9
20260503024032 14 168 0.0 0.0 0.00 0.97 0.20 98 1013.0
20260503023534 14 168 0.0 0.0 0.00 0.97 0.20 98 1013.1
20260503023032 14 168 0.0 0.0 0.00 0.97 0.20 98 1013.2
20260503022523 14 168 0.0 0.0 0.00 0.97 0.20 98 1013.2
20260503022032 14 168 0.0 0.0 0.00 0.97 0.20 98 1013.2
20260503021532 14 168 0.0 0.0 0.00 0.97 0.20 98 1013.1
20260503021057 14 168 0.0 0.0 0.00 0.97 0.20 98 1013.2
20260503020554 14 168 0.0 0.0 0.00 0.97 0.20 98 1013.3
20260503020032 14 163 0.0 0.0 0.00 0.97 0.20 98 1013.3
20260503015532 14 162 0.0 0.0 0.00 0.97 0.20 98 1013.4
20260503015057 14 163 0.0 0.0 0.00 0.97 0.20 98 1013.4
20260503014532 14 163 0.0 0.0 0.00 0.97 0.20 98 1013.4
20260503014033 14 163 0.0 0.0 0.00 0.97 0.20 98 1013.3
20260503013532 14 163 0.0 0.0 0.00 0.97 0.20 98 1013.3
20260503013032 14 162 0.0 0.0 0.00 0.97 0.20 98 1013.3
20260503012532 14 162 0.0 0.0 0.00 0.97 0.20 98 1013.1
20260503012036 14 162 0.0 0.0 0.00 0.97 0.20 98 1013.1
20260503011536 14 162 0.0 0.0 0.00 0.97 0.20 98 1013.1
20260503011032 14 162 0.0 0.0 0.00 0.97 0.20 98 1013.1
20260503010527 14 162 0.0 0.0 0.00 0.97 0.20 98 1013.2
20260503010048 14 162 0.0 0.0 0.00 0.97 0.20 98 1013.2
20260503005525 14 162 0.0 0.0 0.00 0.97 0.20 98 1013.2
20260503005051 13 162 0.0 0.0 0.00 0.97 0.20 98 1013.3
20260503004532 13 163 0.0 3.2 0.00 0.97 0.20 98 1013.4
20260503004032 14 162 0.0 3.2 0.00 0.97 0.20 98 1013.4
20260503003524 14 159 1.6 4.8 0.00 0.97 0.20 98 1013.4
20260503003032 14 156 0.0 3.2 0.00 0.97 0.20 98 1013.5
20260503002528 14 104 0.0 0.0 0.00 0.97 0.20 98 1013.5
20260503002037 14 104 0.0 0.0 0.00 0.97 0.20 98 1013.5
20260503001536 14 104 0.0 0.0 0.00 0.97 0.20 98 1013.5
20260503001032 14 102 0.0 3.2 0.00 0.97 0.20 98 1013.4
20260503000544 14 106 0.0 0.0 0.00 0.97 0.20 98 1013.4
20260503000032 14 106 0.0 0.0 0.00 0.97 0.20 98 1013.4
20260502235535 14 107 0.0 0.0 0.00 0.97 0.20 98 1013.4
20260502235032 14 104 0.0 0.0 0.00 0.97 0.20 98 1013.5
20260502234532 14 104 0.0 1.6 0.03 0.97 0.20 98 1013.6
20260502234034 14 111 0.0 3.2 0.03 0.97 0.20 98 1013.6
20260502233533 14 113 0.0 0.0 0.03 0.97 0.20 98 1013.7
20260502233032 14 112 0.0 0.0 0.08 0.97 0.20 98 1013.9
20260502232532 14 113 0.0 3.2 0.13 0.97 0.20 98 1014.0
20260502232025 14 107 0.0 3.2 0.13 0.97 0.20 98 1013.9
20260502231532 14 104 0.0 0.0 0.15 0.97 0.20 98 1013.9
20260502231034 14 103 0.0 0.0 0.20 0.97 0.20 98 1013.9
20260502230524 14 54 0.0 3.2 0.20 0.97 0.20 98 1013.9
20260502230021 14 156 0.0 3.2 0.20 0.97 0.20 98 1014.0
20260502225534 14 159 0.0 4.8 0.20 0.97 0.20 98 1014.1
20260502225047 14 151 1.6 6.4 0.20 0.97 0.20 98 1014.2
20260502224557 14 115 0.0 3.2 0.18 0.94 0.18 98 1014.1
20260502224032 14 169 3.2 6.4 0.18 0.94 0.18 98 1014.1
20260502223535 14 192 1.6 4.8 0.18 0.94 0.18 98 1013.9
20260502223032 14 118 0.0 0.0 0.13 0.89 0.13 98 1014.0
20260502222533 14 130 0.0 0.0 0.08 0.84 0.08 97 1014.6
20260502222030 14 144 0.0 0.0 0.08 0.84 0.08 97 1014.6
20260502221535 14 138 0.0 3.2 0.05 0.81 0.05 97 1014.5
20260502221032 14 132 0.0 3.2 0.00 0.76 0.00 97 1014.5
20260502220532 14 169 0.0 0.0 0.00 0.76 0.00 97 1014.5
20260502220035 14 115 0.0 0.0 0.03 0.76 0.00 97 1014.5
20260502215527 14 132 0.0 3.2 0.05 0.76 0.76 97 1014.4
20260502215034 14 110 0.0 0.0 0.08 0.76 0.76 97 1014.4
20260502214557 14 342 0.0 0.0 0.10 0.76 0.76 97 1014.5
20260502214036 14 54 0.0 0.0 0.13 0.76 0.76 97 1014.6
20260502213534 14 55 0.0 0.0 0.18 0.76 0.76 96 1014.6
20260502213033 14 31 0.0 3.2 0.33 0.76 0.76 96 1014.6
20260502212532 14 348 0.0 0.0 0.56 0.76 0.76 96 1014.5
20260502212032 14 344 3.2 6.4 0.64 0.76 0.76 96 1014.5
20260502211534 14 349 0.0 3.2 0.74 0.76 0.76 96 1014.6
20260502211022 14 344 1.6 4.8 0.76 0.76 0.76 96 1014.8
20260502210528 14 320 0.0 3.2 0.76 0.76 0.76 96 1015.0
20260502210034 14 268 0.0 4.8 0.74 0.74 0.74 96 1015.0
20260502205534 14 347 1.6 4.8 0.71 0.71 0.71 95 1014.8
20260502205033 14 355 3.2 6.4 0.69 0.69 0.69 95 1015.3
20260502204533 15 284 1.6 4.8 0.66 0.66 0.66 95 1015.8
20260502204032 15 289 0.0 3.2 0.64 0.64 0.64 94 1016.2
20260502203534 15 226 3.2 8.0 0.58 0.58 0.58 94 1016.4
20260502203032 15 219 1.6 8.0 0.43 0.43 0.43 92 1016.8
20260502202532 16 223 6.4 11.3 0.20 0.20 0.20 89 1016.7
20260502202034 17 220 6.4 12.9 0.13 0.13 0.13 83 1016.2
20260502201533 18 268 8.0 17.7 0.03 0.03 0.03 73 1015.9
20260502201045 18 244 4.8 9.7 0.00 0.00 0.00 67 1015.5
20260502200523 18 337 1.6 4.8 0.00 0.00 0.00 68 1014.7
20260502200027 18 358 3.2 8.0 0.00 0.00 0.00 67 1014.6
20260502195534 18 337 3.2 4.8 0.00 0.00 0.00 68 1014.6
20260502195034 18 351 4.8 6.4 0.00 0.00 0.00 68 1014.5
20260502194533 18 11 4.8 8.0 0.00 0.00 0.00 68 1014.4
20260502194033 18 344 3.2 8.0 0.00 0.00 0.00 68 1014.6
20260502193532 19 16 3.2 6.4 0.00 0.00 0.00 67 1014.6
20260502193027 19 355 3.2 6.4 0.00 0.00 0.00 65 1014.7
20260502192532 20 349 4.8 8.0 0.00 0.00 0.00 63 1014.8
20260502192032 20 360 3.2 4.8 0.00 0.00 0.00 62 1014.8
20260502191532 20 356 3.2 6.4 0.00 0.00 0.00 61 1014.9
20260502191032 20 336 1.6 6.4 0.00 0.00 0.00 60 1014.8
20260502190532 20 353 3.2 4.8 0.00 0.00 0.00 61 1014.8
20260502190032 20 27 1.6 4.8 0.00 0.00 0.00 60 1014.8
20260502185532 20 350 3.2 6.4 0.00 0.00 0.00 59 1014.8
20260502185032 20 351 4.8 9.7 0.00 0.00 0.00 59 1014.9
20260502184532 20 4 3.2 8.0 0.00 0.00 0.00 59 1014.9
20260502184032 21 16 4.8 6.4 0.00 0.00 0.00 59 1014.9
20260502183523 21 358 3.2 6.4 0.00 0.00 0.00 58 1014.9
20260502183045 21 347 4.8 6.4 0.00 0.00 0.00 58 1014.9
20260502182532 21 354 4.8 8.0 0.00 0.00 0.00 58 1014.8
20260502182027 21 358 4.8 8.0 0.00 0.00 0.00 57 1014.8
20260502181535 21 332 3.2 6.4 0.00 0.00 0.00 57 1014.9
20260502181032 21 5 3.2 8.0 0.00 0.00 0.00 58 1014.9
20260502180532 22 1 4.8 9.7 0.00 0.00 0.00 57 1014.8
20260502164024 22 359 4.8 9.7 0.00 0.00 0.00 56 1015.5
20260502163532 22 347 4.8 6.4 0.00 0.00 0.00 57 1015.5
20260502163032 22 350 4.8 9.7 0.00 0.00 0.00 57 1015.6
20260502162523 23 314 3.2 6.4 0.00 0.00 0.00 57 1015.7
20260502162027 23 323 4.8 6.4 0.00 0.00 0.00 56 1015.8
20260502161532 23 360 3.2 6.4 0.00 0.00 0.00 57 1015.9
20260502161032 23 322 3.2 6.4 0.00 0.00 0.00 56 1015.9
20260502160532 23 354 3.2 6.4 0.00 0.00 0.00 57 1015.9
20260502152031 23 360 3.2 8.0 0.00 0.00 0.00 56 1016.4
20260502151531 22 347 3.2 6.4 0.00 0.00 0.00 57 1016.5
20260502151031 23 37 3.2 4.8 0.00 0.00 0.00 57 1016.5
20260502150527 23 344 4.8 6.4 0.00 0.00 0.00 57 1016.7
20260502130531 25 185 3.2 6.4 0.00 0.00 0.00 53 1018.2
20260502123531 23 240 3.2 6.4 0.00 0.00 0.00 57 1018.4
20260502123025 23 306 3.2 6.4 0.00 0.00 0.00 59 1018.5
20260502122534 22 251 1.6 3.2 0.00 0.00 0.00 59 1018.5
20260502122031 22 251 3.2 6.4 0.00 0.00 0.00 60 1018.6
20260502121521 22 209 1.6 4.8 0.00 0.00 0.00 61 1018.7
20260502121033 22 206 3.2 8.0 0.00 0.00 0.00 61 1018.7
20260502120531 22 220 3.2 8.0 0.00 0.00 0.00 61 1018.8
20260502115527 22 271 3.2 6.4 0.00 0.00 0.00 62 1018.9
20260502115031 22 278 3.2 6.4 0.00 0.00 0.00 62 1019.0
20260502114532 22 232 4.8 8.0 0.00 0.00 0.00 62 1019.1
20260502114034 22 219 4.8 8.0 0.00 0.00 0.00 61 1019.2
20260502113527 22 238 4.8 9.7 0.00 0.00 0.00 61 1019.2
20260502113031 22 195 4.8 11.3 0.00 0.00 0.00 58 1019.2
20260502112531 22 226 3.2 9.7 0.00 0.00 0.00 60 1019.2
20260502112031 22 249 3.2 6.4 0.00 0.00 0.00 61 1019.3
20260502111521 22 230 3.2 6.4 0.00 0.00 0.00 60 1019.3
20260502111029 22 200 4.8 9.7 0.00 0.00 0.00 61 1019.3
20260502110531 23 188 4.8 9.7 0.00 0.00 0.00 58 1019.3
20260502110033 23 235 3.2 9.7 0.00 0.00 0.00 59 1019.3
20260502105533 22 253 1.6 6.4 0.00 0.00 0.00 60 1019.3
20260502105031 22 208 3.2 8.0 0.00 0.00 0.00 60 1019.4
20260502104532 22 195 3.2 4.8 0.00 0.00 0.00 60 1019.4
20260502104022 22 199 4.8 8.0 0.00 0.00 0.00 60 1019.4
20260502103523 22 227 3.2 6.4 0.00 0.00 0.00 61 1019.5
20260502103032 21 226 3.2 8.0 0.00 0.00 0.00 62 1019.6
20260502102534 21 232 3.2 6.4 0.00 0.00 0.00 63 1019.6
20260502102027 21 245 3.2 8.0 0.00 0.00 0.00 66 1019.7
20260502101533 21 227 3.2 6.4 0.00 0.00 0.00 66 1019.7
20260502101033 21 211 4.8 9.7 0.00 0.00 0.00 66 1019.6
20260502100531 21 214 3.2 6.4 0.00 0.00 0.00 65 1019.7
20260502091534 20 164 4.8 8.0 0.00 0.00 0.00 66 1020.0
20260502091034 20 186 3.2 6.4 0.00 0.00 0.00 70 1020.0
20260502090523 20 186 4.8 8.0 0.00 0.00 0.00 70 1020.1
20260502071533 16 194 1.6 4.8 0.00 0.00 0.00 69 1019.9
20260502071032 15 175 1.6 4.8 0.00 0.00 0.00 70 1019.9
20260502070531 15 199 3.2 4.8 0.00 0.00 0.00 71 1019.9
20260502070031 15 222 1.6 3.2 0.00 0.00 0.00 71 1019.8
20260502065533 15 222 1.6 3.2 0.00 0.00 0.00 72 1019.8
20260502065027 15 222 1.6 3.2 0.00 0.00 0.00 74 1019.8
20260502064533 15 222 0.0 0.0 0.00 0.00 0.00 75 1019.8
20260502064033 15 222 0.0 0.0 0.00 0.00 0.00 74 1019.7
20260502063545 15 222 0.0 0.0 0.00 0.00 0.00 73 1019.8